CW5619 Weather Reports


time (UTC)temp
C
wind
direction
speed
KPH
gust
KPH
rain 1hr
cm
rain 24hr
cm
rain mn
cm
humidity
%
barometer
mb
20260831132403 26 50 8.0 22.5 0.00 0.00 0.00 68 1016.1
20260831131903 26 48 6.4 16.1 0.00 0.00 0.00 69 1016.5
20260831130403 26 54 8.0 19.3 0.00 0.00 0.00 68 1016.9
20260831125903 26 80 1.6 16.1 0.00 0.00 0.00 68 1017.1
20260831125403 26 54 8.0 16.1 0.00 0.00 0.00 67 1016.5
20260831124903 26 58 6.4 14.5 0.00 0.00 0.00 66 1016.6
20260831124403 26 48 3.2 19.3 0.00 0.00 0.00 67 1016.5
20260831123903 26 43 8.0 20.9 0.00 0.00 0.00 66 1016.4
20260831123403 26 38 6.4 20.9 0.00 0.00 0.00 68 1016.3
20260831122404 26 37 4.8 19.3 0.00 0.00 0.00 67 1016.3
20260831121904 26 37 8.0 19.3 0.00 0.00 0.00 67 1016.5
20260831121404 26 26 8.0 19.3 0.00 0.00 0.00 66 1016.7
20260831120904 26 33 4.8 19.3 0.00 0.00 0.00 66 1017.0
20260831120403 26 32 6.4 19.3 0.00 0.00 0.00 66 1017.0
20260831115903 27 247 4.8 14.5 0.00 0.00 0.00 64 1016.7
20260831115403 27 199 4.8 12.9 0.00 0.00 0.00 63 1016.6
20260831114903 27 214 3.2 11.3 0.00 0.00 0.00 61 1016.5
20260831114403 27 221 3.2 19.3 0.00 0.00 0.00 60 1016.5
20260831113903 28 230 6.4 20.9 0.00 0.00 0.00 58 1016.5
20260831113403 28 243 8.0 22.5 0.00 0.00 0.00 57 1016.1
20260831112903 28 249 8.0 27.4 0.00 0.00 0.00 54 1015.9
20260831112403 28 258 14.5 29.0 0.00 0.00 0.00 53 1015.5
20260831111903 28 230 11.3 33.8 0.00 0.00 0.00 53 1015.1
20260831110903 29 224 12.9 33.8 0.00 0.00 0.00 51 1015.1
20260831110403 30 232 16.1 32.2 0.00 0.00 0.00 50 1015.1
20260831105903 30 233 4.8 14.5 0.00 0.00 0.00 46 1014.2
20260831105404 30 220 1.6 3.2 0.00 0.00 0.00 46 1013.8
20260831104903 30 247 0.0 1.6 0.00 0.00 0.00 46 1013.5
20260831104403 30 301 0.0 0.0 0.00 0.00 0.00 47 1013.2
20260831103903 30 301 0.0 0.0 0.00 0.00 0.00 47 1013.2
20260831102904 30 301 0.0 0.0 0.00 0.00 0.00 47 1013.4
20260831101903 30 301 0.0 0.0 0.00 0.00 0.00 48 1013.4
20260831100403 30 299 0.0 0.0 0.00 0.00 0.00 46 1013.2
20260831095903 30 299 0.0 0.0 0.00 0.00 0.00 46 1012.9
20260831095403 30 299 0.0 0.0 0.00 0.00 0.00 46 1012.9
20260831094903 30 299 0.0 1.6 0.00 0.00 0.00 46 1012.9
20260831094403 30 315 0.0 3.2 0.00 0.00 0.00 46 1013.0
20260831093903 30 323 0.0 3.2 0.00 0.00 0.00 46 1013.0
20260831093403 30 314 1.6 3.2 0.00 0.00 0.00 46 1013.0
20260831092903 30 41 0.0 3.2 0.00 0.00 0.00 46 1013.0
20260831091904 30 16 0.0 1.6 0.00 0.00 0.00 46 1013.1
20260831091403 30 16 0.0 1.6 0.00 0.00 0.00 46 1013.2
20260831090903 30 16 0.0 0.0 0.00 0.00 0.00 47 1013.2
20260831090403 30 16 0.0 4.8 0.00 0.00 0.00 46 1013.1
20260831085904 30 16 0.0 4.8 0.00 0.00 0.00 47 1013.2
20260831085403 30 55 1.6 4.8 0.00 0.00 0.00 47 1013.2
20260831084903 30 65 0.0 0.0 0.00 0.00 0.00 46 1013.2
20260831084403 30 65 0.0 0.0 0.00 0.00 0.00 46 1013.2
20260831083903 30 65 0.0 0.0 0.00 0.00 0.00 46 1013.2
20260831083403 30 65 0.0 1.6 0.00 0.00 0.00 46 1013.3
20260831081903 30 65 0.0 0.0 0.00 0.00 0.00 48 1013.3
20260831081403 30 65 0.0 0.0 0.00 0.00 0.00 48 1013.3
20260831080903 30 65 0.0 3.2 0.00 0.00 0.00 49 1013.3
20260831080403 30 65 0.0 3.2 0.00 0.00 0.00 48 1013.4
20260831075903 31 336 0.0 0.0 0.00 0.00 0.00 46 1013.2
20260831074903 31 336 0.0 1.6 0.00 0.00 0.00 46 1013.4
20260831074403 31 336 0.0 1.6 0.00 0.00 0.00 45 1013.3
20260831073903 31 286 0.0 0.0 0.00 0.00 0.00 42 1013.3
20260831073403 31 286 0.0 1.6 0.00 0.00 0.00 42 1013.4
20260831072903 31 286 0.0 1.6 0.00 0.00 0.00 42 1013.4
20260831071904 31 292 0.0 1.6 0.00 0.00 0.00 42 1013.3
20260831070903 31 292 0.0 1.6 0.00 0.00 0.00 42 1013.4
20260831070403 31 292 0.0 3.2 0.00 0.00 0.00 42 1013.5
20260831065904 31 292 0.0 3.2 0.00 0.00 0.00 42 1013.5
20260831065403 31 331 0.0 1.6 0.00 0.00 0.00 42 1013.6
20260831064903 31 334 0.0 1.6 0.00 0.00 0.00 42 1013.6
20260831064403 31 333 0.0 1.6 0.00 0.00 0.00 42 1013.6
20260831063903 31 333 0.0 1.6 0.00 0.00 0.00 42 1013.7
20260831063403 31 333 0.0 1.6 0.00 0.00 0.00 42 1013.7
20260831062903 31 333 0.0 1.6 0.00 0.00 0.00 42 1013.6
20260831062403 31 333 0.0 1.6 0.00 0.00 0.00 41 1013.7
20260831061903 31 355 0.0 1.6 0.00 0.00 0.00 41 1013.7
20260831061403 31 18 0.0 0.0 0.00 0.00 0.00 41 1013.7
20260831060904 31 18 0.0 0.0 0.00 0.00 0.00 41 1013.6
20260831060404 31 18 0.0 0.0 0.00 0.00 0.00 41 1013.6
20260831055903 31 18 0.0 1.6 0.00 0.00 0.00 40 1013.6
20260831055403 32 18 0.0 1.6 0.00 0.00 0.00 40 1013.5
20260831054404 32 298 0.0 1.6 0.00 0.00 0.00 39 1013.4
20260831053903 32 298 0.0 1.6 0.00 0.00 0.00 39 1013.3
20260831053403 32 298 0.0 3.2 0.00 0.00 0.00 39 1013.4
20260831052903 32 242 1.6 4.8 0.00 0.00 0.00 39 1013.4
20260831052403 32 227 0.0 4.8 0.00 0.00 0.00 39 1013.3
20260831051903 32 338 1.6 4.8 0.00 0.00 0.00 38 1013.4
20260831051403 32 326 1.6 4.8 0.00 0.00 0.00 38 1013.3
20260831050903 32 11 0.0 4.8 0.00 0.00 0.00 38 1013.2
20260831050403 32 323 0.0 4.8 0.00 0.00 0.00 38 1013.1
20260831045904 32 291 0.0 4.8 0.00 0.00 0.00 37 1013.2
20260831045404 32 351 1.6 4.8 0.00 0.00 0.00 37 1013.1
20260831044903 32 350 1.6 4.8 0.00 0.00 0.00 37 1013.2
20260831044403 32 341 1.6 4.8 0.00 0.00 0.00 37 1013.2
20260831043903 32 336 1.6 4.8 0.00 0.00 0.00 37 1013.3
20260831043403 32 305 1.6 4.8 0.00 0.00 0.00 37 1013.4
20260831042904 32 12 0.0 4.8 0.00 0.00 0.00 37 1013.3
20260831041904 32 295 3.2 4.8 0.00 0.00 0.00 36 1013.3
20260831041403 33 301 1.6 4.8 0.00 0.00 0.00 36 1013.1
20260831040903 33 259 1.6 4.8 0.00 0.00 0.00 36 1013.0
20260831035903 33 244 3.2 12.9 0.00 0.00 0.00 36 1013.0
20260831035404 33 216 3.2 12.9 0.00 0.00 0.00 36 1013.0
20260831034904 33 227 3.2 9.7 0.00 0.00 0.00 36 1012.9
20260831034403 33 224 4.8 9.7 0.00 0.00 0.00 36 1012.9
20260831033403 33 230 1.6 9.7 0.00 0.00 0.00 35 1012.7
20260831032903 33 223 3.2 9.7 0.00 0.00 0.00 34 1012.6
20260831032404 33 271 0.0 4.8 0.00 0.00 0.00 34 1012.6
20260831031903 33 213 1.6 8.0 0.00 0.00 0.00 34 1012.4
20260831031403 33 276 1.6 8.0 0.00 0.00 0.00 33 1012.4
20260831030903 33 238 1.6 9.7 0.00 0.00 0.00 33 1012.4
20260831030403 33 234 3.2 9.7 0.00 0.00 0.00 33 1012.3
20260831025903 33 243 1.6 16.1 0.00 0.00 0.00 34 1012.3
20260831025403 33 225 4.8 16.1 0.00 0.00 0.00 34 1012.2
20260831024904 34 252 4.8 14.5 0.00 0.00 0.00 34 1012.0
20260831024404 34 232 4.8 14.5 0.00 0.00 0.00 34 1011.8
20260831023903 34 239 6.4 19.3 0.00 0.00 0.00 34 1011.7
20260831023404 34 234 8.0 19.3 0.00 0.00 0.00 34 1011.7
20260831022403 35 230 4.8 14.5 0.00 0.00 0.00 34 1011.4
20260831021904 35 224 8.0 14.5 0.00 0.00 0.00 34 1011.1
20260831021403 35 229 6.4 12.9 0.00 0.00 0.00 34 1011.0
20260831020903 35 251 4.8 11.3 0.00 0.00 0.00 34 1010.8
20260831020403 35 229 4.8 9.7 0.00 0.00 0.00 33 1010.7
20260831015403 35 231 4.8 14.5 0.00 0.00 0.00 33 1010.6
20260831014904 35 237 6.4 14.5 0.00 0.00 0.00 32 1010.6
20260831014403 35 239 1.6 8.0 0.00 0.00 0.00 32 1010.5
20260831013403 35 237 3.2 4.8 0.00 0.00 0.00 32 1010.4
20260831012903 35 241 1.6 4.8 0.00 0.00 0.00 32 1010.4
20260831011903 35 277 1.6 9.7 0.00 0.00 0.00 31 1010.4
20260831011403 35 240 4.8 9.7 0.00 0.00 0.00 31 1010.4
20260831010903 35 229 4.8 9.7 0.00 0.00 0.00 31 1010.3
20260831005903 36 157 0.0 9.7 0.00 0.00 0.00 31 1010.3
20260831005404 36 298 1.6 9.7 0.00 0.00 0.00 31 1010.3
20260831003904 36 243 0.0 12.9 0.00 0.00 0.00 30 1010.3
20260831003403 36 19 1.6 12.9 0.00 0.00 0.00 29 1010.3
20260831002903 36 242 4.8 12.9 0.00 0.00 0.00 29 1010.3
20260831002404 36 243 1.6 11.3 0.00 0.00 0.00 29 1010.4
20260831001904 36 200 1.6 11.3 0.00 0.00 0.00 29 1010.4
20260831001403 36 229 1.6 11.3 0.00 0.00 0.00 29 1010.3
20260831000903 36 210 1.6 11.3 0.00 0.00 0.00 29 1010.5
20260831000403 36 256 0.0 11.3 0.00 0.00 0.00 28 1010.4
20260830235903 36 243 4.8 11.3 0.00 0.00 0.00 29 1010.4
20260830235403 36 237 4.8 11.3 0.00 0.00 0.00 29 1010.4
20260830234903 36 71 4.8 12.9 0.00 0.00 0.00 29 1010.4
20260830234403 36 224 4.8 12.9 0.00 0.00 0.00 29 1010.3
20260830233903 36 240 4.8 11.3 0.00 0.00 0.00 29 1010.4
20260830233404 36 46 3.2 9.7 0.00 0.00 0.00 28 1010.3
20260830232904 36 214 1.6 9.7 0.00 0.00 0.00 29 1010.5
20260830232403 36 251 3.2 9.7 0.00 0.00 0.00 29 1010.6
20260830231904 36 236 4.8 11.3 0.00 0.00 0.00 29 1010.6
20260830231403 36 238 1.6 11.3 0.00 0.00 0.00 28 1010.6
20260830230903 36 263 1.6 4.8 0.00 0.00 0.00 28 1010.7
20260830230403 37 316 1.6 9.7 0.00 0.00 0.00 29 1010.9
20260830225903 37 162 3.2 11.3 0.00 0.00 0.00 29 1011.0
20260830223404 37 11 1.6 12.9 0.00 0.00 0.00 28 1011.4
20260830222903 37 190 1.6 12.9 0.00 0.00 0.00 29 1011.5
20260830222403 37 298 3.2 12.9 0.00 0.00 0.00 29 1011.6
20260830221903 37 227 4.8 14.5 0.00 0.00 0.00 29 1011.6
20260830221403 37 318 4.8 14.5 0.00 0.00 0.00 29 1011.7
20260830220904 37 233 3.2 12.9 0.00 0.00 0.00 30 1011.7
20260830220404 37 293 4.8 12.9 0.00 0.00 0.00 30 1011.8
20260830215904 37 222 4.8 12.9 0.00 0.00 0.00 29 1012.0
20260830215403 37 172 3.2 12.9 0.00 0.00 0.00 29 1012.0
20260830214903 37 259 4.8 12.9 0.00 0.00 0.00 30 1012.1
20260830214403 37 299 1.6 12.9 0.00 0.00 0.00 30 1012.2
20260830213903 37 287 4.8 12.9 0.00 0.00 0.00 30 1012.3
20260830213403 36 282 3.2 12.9 0.00 0.00 0.00 30 1012.3
20260830212904 36 231 1.6 9.7 0.00 0.00 0.00 30 1012.4
20260830211904 36 8 3.2 14.5 0.00 0.00 0.00 30 1012.6
20260830211403 36 296 3.2 14.5 0.00 0.00 0.00 30 1012.6
20260830210903 36 47 3.2 8.0 0.00 0.00 0.00 30 1012.7
20260830210403 36 116 1.6 11.3 0.00 0.00 0.00 30 1012.8
20260830205904 36 66 3.2 11.3 0.00 0.00 0.00 30 1012.9
20260830204903 36 235 3.2 12.9 0.00 0.00 0.00 30 1013.0
20260830203903 36 236 8.0 12.9 0.00 0.00 0.00 30 1013.3
20260830203403 36 203 3.2 9.7 0.00 0.00 0.00 31 1013.5
20260830202903 36 259 1.6 8.0 0.00 0.00 0.00 31 1013.5
20260830202403 36 27 3.2 8.0 0.00 0.00 0.00 31 1013.5
20260830201904 36 49 1.6 8.0 0.00 0.00 0.00 31 1013.7
20260830201403 36 222 3.2 8.0 0.00 0.00 0.00 31 1013.7
20260830200904 36 48 3.2 8.0 0.00 0.00 0.00 31 1013.7
20260830200404 36 171 3.2 8.0 0.00 0.00 0.00 32 1013.7
20260830195903 36 200 1.6 14.5 0.00 0.00 0.00 31 1013.9
20260830194903 36 226 4.8 12.9 0.00 0.00 0.00 31 1014.0
20260830194403 36 213 3.2 8.0 0.00 0.00 0.00 31 1014.1
20260830193903 36 224 1.6 11.3 0.00 0.00 0.00 32 1014.1
20260830193403 36 37 4.8 11.3 0.00 0.00 0.00 32 1014.3
20260830192903 36 37 3.2 11.3 0.00 0.00 0.00 32 1014.3
20260830191903 36 241 3.2 9.7 0.00 0.00 0.00 33 1014.4
20260830191404 36 220 3.2 8.0 0.00 0.00 0.00 33 1014.5
20260830190904 35 296 3.2 9.7 0.00 0.00 0.00 33 1014.5
20260830190403 35 30 4.8 12.9 0.00 0.00 0.00 34 1014.6
20260830185903 35 251 6.4 14.5 0.00 0.00 0.00 34 1014.8
20260830185403 35 33 6.4 14.5 0.00 0.00 0.00 35 1014.9
20260830184903 35 329 1.6 12.9 0.00 0.00 0.00 34 1014.9
20260830183903 34 245 1.6 11.3 0.00 0.00 0.00 35 1015.0
20260830182904 34 239 3.2 11.3 0.00 0.00 0.00 35 1015.1
20260830182403 34 223 1.6 9.7 0.00 0.00 0.00 36 1015.3
20260830181903 34 212 3.2 9.7 0.00 0.00 0.00 35 1015.4
20260830181404 33 84 1.6 4.8 0.00 0.00 0.00 37 1015.3
20260830180903 33 111 1.6 4.8 0.00 0.00 0.00 36 1015.4
20260830180403 33 155 1.6 4.8 0.00 0.00 0.00 36 1015.4
20260830175903 33 131 1.6 8.0 0.00 0.00 0.00 37 1015.6
20260830175403 33 38 1.6 8.0 0.00 0.00 0.00 37 1015.6
20260830174903 33 75 3.2 11.3 0.00 0.00 0.00 37 1015.5
20260830174404 33 72 3.2 11.3 0.00 0.00 0.00 36 1015.6
20260830173903 33 74 3.2 11.3 0.00 0.00 0.00 37 1015.6
20260830173403 33 110 3.2 11.3 0.00 0.00 0.00 37 1015.7
20260830172903 33 81 3.2 8.0 0.00 0.00 0.00 37 1015.8
20260830171903 33 197 3.2 12.9 0.00 0.00 0.00 37 1015.8
20260830171403 33 65 1.6 4.8 0.00 0.00 0.00 38 1015.8
20260830170904 33 122 3.2 4.8 0.00 0.00 0.00 38 1015.9
20260830170403 33 235 1.6 8.0 0.00 0.00 0.00 38 1015.9
20260830165903 33 120 3.2 8.0 0.00 0.00 0.00 38 1015.9
20260830165404 33 156 1.6 9.7 0.00 0.00 0.00 38 1016.0
20260830164904 33 131 3.2 9.7 0.00 0.00 0.00 38 1016.0
20260830163903 32 114 1.6 11.3 0.00 0.00 0.00 39 1016.0
20260830163403 32 89 3.2 11.3 0.00 0.00 0.00 39 1016.0
20260830162904 32 177 3.2 11.3 0.00 0.00 0.00 39 1016.1
20260830162403 32 88 3.2 11.3 0.00 0.00 0.00 39 1016.1
20260830161904 32 183 3.2 11.3 0.00 0.00 0.00 39 1016.1
20260830161403 32 144 4.8 11.3 0.00 0.00 0.00 39 1016.1
20260830160903 32 196 3.2 11.3 0.00 0.00 0.00 39 1016.1
20260830160403 32 165 3.2 11.3 0.00 0.00 0.00 40 1016.1
20260830155903 32 85 3.2 11.3 0.00 0.00 0.00 40 1016.2
20260830155403 32 114 3.2 11.3 0.00 0.00 0.00 40 1016.1
20260830154903 32 192 3.2 9.7 0.00 0.00 0.00 40 1016.1
20260830154404 32 110 3.2 9.7 0.00 0.00 0.00 40 1016.0
20260830152903 32 135 3.2 11.3 0.00 0.00 0.00 42 1016.0
20260830152403 31 171 1.6 9.7 0.00 0.00 0.00 43 1016.0
20260830151903 31 106 4.8 9.7 0.00 0.00 0.00 43 1015.9
20260830150904 31 110 1.6 8.0 0.00 0.00 0.00 45 1016.1
20260830150403 30 179 3.2 9.7 0.00 0.00 0.00 45 1016.0
20260830145903 30 194 1.6 9.7 0.00 0.00 0.00 45 1016.1
20260830145403 30 183 1.6 8.0 0.00 0.00 0.00 46 1016.0
20260830144904 30 99 1.6 4.8 0.00 0.00 0.00 46 1016.1
20260830144404 30 88 0.0 4.8 0.00 0.00 0.00 46 1016.1
20260830143903 30 105 1.6 4.8 0.00 0.00 0.00 46 1016.1
20260830143403 30 103 1.6 3.2 0.00 0.00 0.00 46 1016.1
20260830142904 30 110 0.0 11.3 0.00 0.00 0.00 46 1016.1
20260830141903 30 87 3.2 14.5 0.00 0.00 0.00 46 1016.3
20260830141403 30 103 3.2 12.9 0.00 0.00 0.00 46 1016.3
20260830140903 30 122 3.2 12.9 0.00 0.00 0.00 46 1016.3
20260830140403 30 125 3.2 12.9 0.00 0.00 0.00 46 1016.3
20260830135904 30 114 1.6 4.8 0.00 0.00 0.00 46 1016.2
20260830134903 30 119 1.6 11.3 0.00 0.00 0.00 45 1016.1
20260830134403 30 113 1.6 11.3 0.00 0.00 0.00 45 1016.1
20260830133404 30 100 3.2 9.7 0.00 0.00 0.00 45 1016.1
20260830132903 30 119 1.6 9.7 0.00 0.00 0.00 45 1016.1